This is the latest recevied weather packets stored in our database for station/object DL9LA-13. If no packets are shown the sender has not sent any weather packets the latest 10 day(s).
| Time | Temp. | Humidity | Pressure | Rain* | Wind** | Luminosity | Snow |
|---|---|---|---|---|---|---|---|
| 1777572282 | 13.33° C | 27% | 981 hPa | - | - | - | - |
| 1777571075 | 14.44° C | 26% | 981 hPa | - | - | - | - |
| 1777570471 | 14.44° C | 25% | 981 hPa | - | - | - | - |
| 1777569867 | 15° C | 24% | 981 hPa | - | - | - | - |
| 1777568056 | 15.56° C | 23% | 981 hPa | - | - | - | - |
| 1777567453 | 16.11° C | 22% | 981 hPa | - | - | - | - |
| 1777566849 | 16.11° C | 23% | 981 hPa | - | - | - | - |
| 1777566245 | 16.11° C | 23% | 981 hPa | - | - | - | - |
| 1777563227 | 16.67° C | 23% | 981 hPa | - | - | - | - |
| 1777562020 | 16.11° C | 21% | 981 hPa | - | - | - | - |
| 1777561416 | 16.11° C | 21% | 981 hPa | - | - | - | - |
| 1777557794 | 16.11° C | 23% | 982 hPa | - | - | - | - |
| 1777555983 | 15° C | 23% | 982 hPa | - | - | - | - |
| 1777554776 | 15° C | 23% | 982 hPa | - | - | - | - |
| 1777550551 | 13.89° C | 26% | 982 hPa | - | - | - | - |
| 1777547533 | 13.33° C | 25% | 983 hPa | - | - | - | - |
| 1777546929 | 13.33° C | 26% | 983 hPa | - | - | - | - |
| 1777545118 | 12.22° C | 26% | 983 hPa | - | - | - | - |
| 1777541496 | 11.11° C | 30% | 983 hPa | - | - | - | - |
| 1777539685 | 10.56° C | 31% | 984 hPa | - | - | - | - |
| 1777539083 | 10° C | 32% | 984 hPa | - | - | - | - |
| 1777538478 | 10° C | 32% | 984 hPa | - | - | - | - |
| 1777536667 | 9.44° C | 31% | 983 hPa | - | - | - | - |
| 1777536063 | 9.44° C | 33% | 983 hPa | - | - | - | - |
| 1777534856 | 8.89° C | 33% | 983 hPa | - | - | - | - |
* Rain since midnight (hover to see other rain measurements)
** Current wind speed in m/s (hover to see current wind gust speed)